Driggs, ID

10:19 PM MDT on June 25, 2017 (GMT -0600)
Driggs

Weather History for KDIJ - April, 2014

Change the Weather History Date:

Friday, April 25, 2014

  Actual Average (KJAC) Record (KJAC)
Temperature  
Mean Temperature 44 °F -  
Max Temperature 52 °F 52 °F 72 °F (1977)
Min Temperature 36 °F 25 °F 10 °F (1985)
Degree Days  
Heating Degree Days 21    
Moisture  
Dew Point 36 °F    
Average Humidity 77    
Maximum Humidity 100    
Minimum Humidity 45    
Precipitation  
Precipitation 0.00 in - - ()
Sea Level Pressure  
Sea Level Pressure 29.68 in    
Wind  
Wind Speed 8 mph (South)    
Max Wind Speed 30 mph    
Max Gust Speed 36 mph    
Visibility 8 miles    
Events Rain    
Averages and records for this station are not official NWS values.
T = Trace of Precipitation, MM = Missing Value Source: NWS Daily Summary

Daily Weather History Graph

Daily Weather History Graph

Search for Another Location

Airport or City:

Trip Planner

Search our weather history database for the weather conditions in past years. The results will help you decide how hot, cold, wet, or windy it might be!

Date:

Astronomy

Apr. 25, 2014 Rise Set
Actual Time 6:25 AM MDT 8:20 PM MDT
Civil Twilight 5:54 AM MDT 8:51 PM MDT
Nautical Twilight 5:16 AM MDT 9:28 PM MDT
Astronomical Twilight 4:35 AM MDT 10:10 PM MDT
Moon 4:23 AM MDT (4/25) 4:39 PM MDT (4/25)
Length of Visible Light 14h 56m
Length of Day
13h 54m
Waning Crescent, 15% of the Moon is Illuminated
Apr 25
Waning Crescent
Apr 29
New
May 6
First Quarter
May 14
Full
May 21
Last Quarter

Hourly Weather History & Observations

Time (MDT) Temp. Windchill Dew Point Humidity Pressure Visibility Wind Dir Wind Speed Gust Speed Precip Events Conditions
12:56 AM 37.9 °F 31.5 °F 32.0 °F 79% 29.86 in 10.0 mi SSW 9.2 mph - N/A   Overcast
1:56 AM 36.9 °F 32.2 °F 32.0 °F 83% 29.86 in 10.0 mi SSE 5.8 mph - N/A   Overcast
2:56 AM 36.9 °F 30.1 °F 32.9 °F 86% 29.84 in 10.0 mi South 9.2 mph - N/A   Mostly Cloudy
3:56 AM 38.8 °F 31.6 °F 32.0 °F 76% 29.81 in 10.0 mi SE 11.5 mph - N/A   Mostly Cloudy
4:56 AM 38.8 °F 31.6 °F 32.0 °F 76% 29.81 in 10.0 mi South 11.5 mph - N/A   Mostly Cloudy
5:56 AM 37.9 °F - 34.0 °F 86% 29.79 in 9.0 mi Calm Calm - N/A   Overcast
6:56 AM 36.9 °F 34.3 °F 34.0 °F 89% 29.78 in 9.0 mi Variable 3.5 mph - N/A   Mostly Cloudy
8:56 AM 39.9 °F 36.7 °F 32.9 °F 76% 29.75 in 9.0 mi West 4.6 mph - N/A   Scattered Clouds
9:56 AM 41.9 °F - 32.9 °F 70% 29.73 in 10.0 mi Calm Calm - N/A   Scattered Clouds
10:56 AM 43.9 °F 36.5 °F 34.0 °F 68% 29.72 in 7.0 mi South 16.1 mph - N/A   Mostly Cloudy
11:56 AM 45.0 °F 43.5 °F 34.0 °F 65% 29.70 in 8.0 mi Variable 3.5 mph - 0.00 in   Mostly Cloudy
12:12 PM 44.6 °F 42.2 °F 35.6 °F 71% 29.81 in 4.0 mi East 4.6 mph - N/A   Haze
12:34 PM 44.6 °F 43.1 °F 35.6 °F 71% 29.80 in 8.0 mi Variable 3.5 mph - N/A   Mostly Cloudy
12:56 PM 46.9 °F - 32.9 °F 58% 29.66 in 8.0 mi Variable 4.6 mph - N/A   Scattered Clouds
1:29 PM 51.8 °F - 33.8 °F 50% 29.77 in 10.0 mi South 8.1 mph 16.1 mph N/A   Scattered Clouds
1:56 PM 50.0 °F - 32.9 °F 52% 29.63 in 7.0 mi SSW 12.7 mph - N/A   Mostly Cloudy
2:56 PM 52.9 °F - 34.0 °F 49% 29.60 in 8.0 mi South 13.8 mph - N/A   Scattered Clouds
3:56 PM 52.9 °F - 32.0 °F 45% 29.56 in 10.0 mi SSW 15.0 mph - N/A   Partly Cloudy
4:45 PM 46.4 °F 37.2 °F 37.4 °F 71% 29.69 in 5.0 mi South 29.9 mph 35.7 mph 0.00 in Rain Light Rain
4:56 PM 45.0 °F 37.4 °F 37.9 °F 76% 29.59 in 4.0 mi SSW 18.4 mph - 0.00 in Rain Light Rain
5:56 PM 45.0 °F 38.5 °F 36.0 °F 71% 29.59 in 5.0 mi SSW 13.8 mph - 0.00 in Rain Light Rain
6:56 PM 41.9 °F 39.0 °F 37.9 °F 86% 29.59 in 6.0 mi SW 4.6 mph - 0.00 in Rain Light Rain
7:24 PM 42.8 °F - 37.4 °F 81% 29.67 in 2.5 mi Calm Calm - 0.00 in Rain Light Rain
7:31 PM 42.8 °F 40.1 °F 37.4 °F 81% 29.67 in 4.0 mi NE 4.6 mph - 0.00 in Rain Light Rain
7:56 PM 41.9 °F 38.2 °F 39.9 °F 93% 29.56 in 4.0 mi NNE 5.8 mph - 0.00 in Rain Light Rain
8:56 PM 41.0 °F 39.0 °F 39.9 °F 96% 29.55 in 5.0 mi North 3.5 mph - 0.00 in Rain Light Rain
9:09 PM 41.0 °F 39.0 °F 41.0 °F 100% 29.65 in 6.0 mi NNE 3.5 mph - 0.00 in Rain Light Rain
9:18 PM 41.0 °F 38.0 °F 41.0 °F 100% 29.65 in 7.0 mi NE 4.6 mph - 0.00 in Rain Light Rain
9:56 PM 39.9 °F 36.7 °F 38.8 °F 96% 29.52 in 10.0 mi NNW 4.6 mph - 0.00 in   Scattered Clouds
10:56 PM 39.9 °F 37.8 °F 39.9 °F 100% 29.49 in 8.0 mi East 3.5 mph - N/A   Scattered Clouds
11:56 PM 41.9 °F 36.3 °F 36.9 °F 82% 29.46 in 9.0 mi South 9.2 mph - 0.00 in   Overcast